Wilmington, NC

5:55 AM EDT on October 19, 2017 (GMT -0400)
Wilmington International

Weather History for KILM - July, 2013

Change the Weather History Date:

Friday, July 26, 2013

  Actual Average Record
Temperature  
Mean Temperature 77 °F 81 °F  
Max Temperature 84 °F 90 °F 98 °F (1968)
Min Temperature 69 °F 73 °F 63 °F (1895)
Degree Days  
Heating Degree Days 0 0  
Month to date heating degree days 0 0  
Since 1 June heating degree days 0 2  
Since 1 July heating degree days 0 0  
Cooling Degree Days 12 16  
Month to date cooling degree days 399 416  
Year to date cooling degree days 1005 1082  
Since 1 June cooling degree days 779 801  
Growing Degree Days 26 (Base 50)    
Moisture  
Dew Point 68 °F    
Average Humidity 78    
Maximum Humidity 97    
Minimum Humidity 58    
Precipitation  
Precipitation 0.00 in 0.27 in 3.28 in (1986)
Month to date precipitation 4.80 6.21  
Year to date precipitation 32.97 30.29  
Sea Level Pressure  
Sea Level Pressure 30.06 in    
Wind  
Wind Speed 6 mph (ENE)    
Max Wind Speed 10 mph    
Max Gust Speed 15 mph    
Visibility 10 miles    
Events      
T = Trace of Precipitation, MM = Missing Value Source: NWS Daily Summary

Daily Weather History Graph

Daily Weather History Graph

Search for Another Location

Airport or City:

Trip Planner

Search our weather history database for the weather conditions in past years. The results will help you decide how hot, cold, wet, or windy it might be!

Date:

Astronomy

Jul. 26, 2013 Rise Set
Actual Time 6:18 AM EDT 8:17 PM EDT
Civil Twilight 5:50 AM EDT 8:45 PM EDT
Nautical Twilight 5:16 AM EDT 9:19 PM EDT
Astronomical Twilight 4:40 AM EDT 9:55 PM EDT
Moon 10:46 PM EDT (7/26) 10:37 AM EDT (7/26)
Length of Visible Light 14h 54m
Length of Day
13h 59m
Waning Gibbous, 80% of the Moon is Illuminated
Jul 26
Waning Gibbous
Jul 29
Last Quarter
Aug 6
New
Aug 14
First Quarter
Aug 20
Full

Hourly Weather History & Observations

Time (EDT) Temp. Heat Index Dew Point Humidity Pressure Visibility Wind Dir Wind Speed Gust Speed Precip Events Conditions
12:53 AM 73.0 °F - 70.0 °F 90% 30.01 in 10.0 mi NNE 6.9 mph - N/A   Clear
1:53 AM 72.0 °F - 69.1 °F 91% 30.01 in 10.0 mi NE 4.6 mph - 0.01 in   Clear
2:53 AM 71.1 °F - 68.0 °F 90% 30.00 in 10.0 mi NE 5.8 mph - N/A   Clear
3:53 AM 70.0 °F - 68.0 °F 93% 30.00 in 10.0 mi NE 5.8 mph - N/A   Clear
4:53 AM 69.1 °F - 66.9 °F 93% 30.02 in 9.0 mi NE 3.5 mph - N/A   Clear
5:53 AM 69.1 °F - 66.9 °F 93% 30.04 in 9.0 mi North 4.6 mph - 0.01 in   Clear
6:53 AM 69.1 °F - 66.9 °F 93% 30.05 in 7.0 mi NNE 4.6 mph - N/A   Clear
7:04 AM 69.8 °F - 68.0 °F 94% 30.05 in 9.0 mi NNE 5.8 mph - N/A   Partly Cloudy
7:53 AM 72.0 °F - 68.0 °F 87% 30.06 in 10.0 mi NNE 9.2 mph - N/A   Clear
8:53 AM 75.0 °F - 69.1 °F 82% 30.08 in 10.0 mi NE 6.9 mph - N/A   Clear
9:53 AM 79.0 °F - 70.0 °F 74% 30.09 in 10.0 mi ENE 6.9 mph - N/A   Clear
10:53 AM 81.0 °F 83.8 °F 68.0 °F 65% 30.09 in 10.0 mi East 8.1 mph - N/A   Partly Cloudy
11:07 AM 80.6 °F 83.2 °F 68.0 °F 65% 30.09 in 10.0 mi East 8.1 mph - N/A   Mostly Cloudy
11:16 AM 80.6 °F 83.2 °F 68.0 °F 65% 30.09 in 10.0 mi ENE 4.6 mph - N/A   Scattered Clouds
11:25 AM 82.4 °F 85.4 °F 68.0 °F 62% 30.09 in 10.0 mi ENE 8.1 mph - N/A   Mostly Cloudy
11:48 AM 82.4 °F 86.3 °F 69.8 °F 66% 30.09 in 10.0 mi Variable 5.8 mph - N/A   Scattered Clouds
11:53 AM 82.0 °F 84.9 °F 68.0 °F 62% 30.09 in 10.0 mi Variable 5.8 mph - N/A   Scattered Clouds
12:53 PM 82.0 °F 84.5 °F 66.9 °F 60% 30.08 in 10.0 mi Variable 4.6 mph - N/A   Clear
1:53 PM 82.9 °F 85.4 °F 66.9 °F 58% 30.07 in 10.0 mi ESE 8.1 mph - N/A   Clear
2:53 PM 82.9 °F 85.8 °F 68.0 °F 60% 30.06 in 10.0 mi SSE 5.8 mph - N/A   Clear
3:53 PM 82.9 °F 85.0 °F 66.0 °F 56% 30.05 in 10.0 mi Variable 5.8 mph - N/A   Clear
4:53 PM 82.0 °F 84.5 °F 66.9 °F 60% 30.05 in 10.0 mi ESE 6.9 mph - N/A   Clear
5:53 PM 82.0 °F 84.5 °F 66.9 °F 60% 30.05 in 10.0 mi SE 9.2 mph - N/A   Clear
6:53 PM 81.0 °F 83.8 °F 68.0 °F 65% 30.05 in 10.0 mi ESE 9.2 mph - N/A   Clear
7:53 PM 78.1 °F - 68.0 °F 71% 30.06 in 10.0 mi ESE 9.2 mph - N/A   Clear
8:53 PM 77.0 °F - 70.0 °F 79% 30.06 in 10.0 mi ESE 6.9 mph - 0.01 in   Clear
9:53 PM 75.9 °F - 70.0 °F 82% 30.06 in 10.0 mi East 4.6 mph - N/A   Clear
10:53 PM 73.0 °F - 70.0 °F 90% 30.06 in 10.0 mi Calm Calm - N/A   Clear
11:53 PM 71.1 °F - 69.1 °F 93% 30.06 in 10.0 mi Calm Calm - N/A   Clear